Time,TemperatureF,DewpointF,PressureIn,WindDirection,WindDirectionDegrees,WindSpeedMPH,WindSpeedGustMPH,Humidity,HourlyPrecipIn,Conditions,Clouds,dailyrainin,SoftwareType,DateUTC
2016-02-06 00:04:00,44.0,-99.9,-100.00,West,265,0.0,2.0,-999,-99.99,,,-99.99,,2016-02-06 08:04:00,
2016-02-06 00:13:00,44.0,-99.9,-100.00,West,265,0.0,2.0,-999,-99.99,,,-99.99,,2016-02-06 08:13:00,
2016-02-06 00:24:00,44.0,-99.9,-100.00,West,265,0.0,0.0,-999,-99.99,,,-99.99,,2016-02-06 08:24:00,
2016-02-06 00:34:00,44.0,-99.9,-100.00,West,265,0.0,0.0,-999,-99.99,,,-99.99,,2016-02-06 08:34:00,
2016-02-06 00:44:00,44.0,-99.9,-100.00,West,265,0.0,0.0,-999,-99.99,,,-99.99,,2016-02-06 08:44:00,
2016-02-06 00:54:00,43.0,-99.9,-100.00,West,263,0.0,3.0,-999,-99.99,,,-99.99,,2016-02-06 08:54:00,
2016-02-06 01:04:00,43.0,-99.9,-100.00,WSW,247,1.0,5.0,-999,-99.99,,,-99.99,,2016-02-06 09:04:00,
2016-02-06 01:24:00,44.0,-99.9,-100.00,WSW,257,1.0,3.0,-999,-99.99,,,-99.99,,2016-02-06 09:24:00,
2016-02-06 01:34:00,43.0,-99.9,-100.00,SW,216,1.0,9.0,-999,-99.99,,,-99.99,,2016-02-06 09:34:00,
2016-02-06 01:44:00,43.0,-99.9,-100.00,SW,216,1.0,9.0,-999,-99.99,,,-99.99,,2016-02-06 09:44:00,
2016-02-06 02:04:00,44.0,-99.9,-100.00,WSW,245,0.0,3.0,-999,-99.99,,,-99.99,,2016-02-06 10:04:00,
2016-02-06 02:13:00,44.0,-99.9,-100.00,WSW,245,0.0,3.0,-999,-99.99,,,-99.99,,2016-02-06 10:13:00,
2016-02-06 02:24:00,44.0,-99.9,-100.00,WSW,245,1.0,3.0,-999,-99.99,,,-99.99,,2016-02-06 10:24:00,
2016-02-06 02:37:00,44.0,-99.9,-100.00,South,190,0.0,3.0,-999,-99.99,,,-99.99,,2016-02-06 10:37:00,
2016-02-06 02:44:00,44.0,-99.9,-100.00,South,190,0.0,3.0,-999,-99.99,,,-99.99,,2016-02-06 10:44:00,
2016-02-06 03:04:00,44.0,-99.9,-100.00,SSW,212,0.0,3.0,-999,-99.99,,,-99.99,,2016-02-06 11:04:00,
2016-02-06 03:14:00,44.0,-99.9,-100.00,SSW,212,0.0,3.0,-999,-99.99,,,-99.99,,2016-02-06 11:14:00,
2016-02-06 03:24:00,44.0,-99.9,-100.00,SSE,151,0.0,2.0,-999,-99.99,,,-99.99,,2016-02-06 11:24:00,
2016-02-06 03:34:00,44.0,-99.9,-100.00,SSE,152,0.0,2.0,-999,-99.99,,,-99.99,,2016-02-06 11:34:00,
2016-02-06 03:44:00,44.0,-99.9,-100.00,SSE,152,0.0,2.0,-999,-99.99,,,-99.99,,2016-02-06 11:44:00,
2016-02-06 03:54:00,44.0,-99.9,-100.00,SSE,151,0.0,2.0,-999,-99.99,,,-99.99,,2016-02-06 11:54:00,
2016-02-06 04:04:00,44.0,-99.9,-100.00,SSW,204,4.0,10.0,-999,-99.99,,,-99.99,,2016-02-06 12:04:00,
2016-02-06 04:14:00,44.0,-99.9,-100.00,SSW,204,4.0,10.0,-999,-99.99,,,-99.99,,2016-02-06 12:14:00,
2016-02-06 04:24:00,43.0,-99.9,-100.00,West,269,2.0,3.0,-999,-99.99,,,-99.99,,2016-02-06 12:24:00,
2016-02-06 04:34:00,43.0,-99.9,-100.00,SSW,210,3.0,8.0,-999,-99.99,,,-99.99,,2016-02-06 12:34:00,
2016-02-06 04:54:00,43.0,-99.9,-100.00,SW,232,0.0,3.0,-999,-99.99,,,-99.99,,2016-02-06 12:54:00,
2016-02-06 05:04:00,43.0,-99.9,-100.00,SW,231,0.0,2.0,-999,-99.99,,,-99.99,,2016-02-06 13:04:00,
2016-02-06 05:13:00,43.0,-99.9,-100.00,SW,231,0.0,2.0,-999,-99.99,,,-99.99,,2016-02-06 13:13:00,
2016-02-06 05:24:00,43.0,-99.9,-100.00,SW,232,0.0,2.0,-999,-99.99,,,-99.99,,2016-02-06 13:24:00,
2016-02-06 05:34:00,43.0,-99.9,-100.00,SW,231,0.0,1.0,-999,-99.99,,,-99.99,,2016-02-06 13:34:00,
2016-02-06 05:44:00,43.0,-99.9,-100.00,SW,231,0.0,1.0,-999,-99.99,,,-99.99,,2016-02-06 13:44:00,
2016-02-06 05:55:00,43.0,-99.9,-100.00,SW,231,0.0,2.0,-999,-99.99,,,-99.99,,2016-02-06 13:55:00,
2016-02-06 06:04:00,43.0,-99.9,-100.00,SW,231,0.0,0.0,-999,-99.99,,,-99.99,,2016-02-06 14:04:00,
2016-02-06 06:13:00,43.0,-99.9,-100.00,SW,231,0.0,0.0,-999,-99.99,,,-99.99,,2016-02-06 14:13:00,
2016-02-06 06:24:00,43.0,-99.9,-100.00,SW,231,0.0,3.0,-999,-99.99,,,-99.99,,2016-02-06 14:24:00,
2016-02-06 06:34:00,43.0,-99.9,-100.00,SW,229,0.0,1.0,-999,-99.99,,,-99.99,,2016-02-06 14:34:00,
2016-02-06 06:54:00,43.0,-99.9,-100.00,West,275,0.0,2.0,-999,-99.99,,,-99.99,,2016-02-06 14:54:00,
2016-02-06 07:04:00,43.0,-99.9,-100.00,West,275,0.0,0.0,-999,-99.99,,,-99.99,,2016-02-06 15:04:00,
2016-02-06 07:13:00,43.0,-99.9,-100.00,West,275,0.0,0.0,-999,-99.99,,,-99.99,,2016-02-06 15:13:00,
2016-02-06 07:24:00,43.0,-99.9,-100.00,West,275,0.0,2.0,-999,-99.99,,,-99.99,,2016-02-06 15:24:00,
2016-02-06 07:35:00,43.0,-99.9,-100.00,West,275,0.0,0.0,-999,-99.99,,,-99.99,,2016-02-06 15:35:00,
2016-02-06 07:45:00,43.0,-99.9,-100.00,West,275,0.0,0.0,-999,-99.99,,,-99.99,,2016-02-06 15:45:00,
2016-02-06 08:04:00,43.0,-99.9,-100.00,West,275,0.0,2.0,-999,-99.99,,,-99.99,,2016-02-06 16:04:00,
2016-02-06 08:14:00,43.0,-99.9,-100.00,West,275,0.0,2.0,-999,-99.99,,,-99.99,,2016-02-06 16:14:00,
2016-02-06 08:24:00,43.0,-99.9,-100.00,West,275,0.0,2.0,-999,-99.99,,,-99.99,,2016-02-06 16:24:00,
2016-02-06 08:35:00,44.0,-99.9,-100.00,West,275,1.0,3.0,-999,-99.99,,,-99.99,,2016-02-06 16:35:00,